TimeCDT,TemperatureF,Dew PointF,Humidity,Sea Level PressureIn,VisibilityMPH,Wind Direction,Wind SpeedMPH,Gust SpeedMPH,PrecipitationIn,Events,Conditions,WindDirDegrees,DateUTC
12:56 AM,66.9,64.9,93,29.93,10.0,SSW,9.2,-,0.01,,Clear,210,2013-06-16 05:56:00
1:56 AM,66.9,64.9,93,29.90,10.0,SSW,10.4,-,N/A,,Clear,200,2013-06-16 06:56:00
2:56 AM,66.9,64.9,93,29.92,10.0,SW,9.2,-,0.00,,Clear,220,2013-06-16 07:56:00
3:56 AM,66.9,64.9,93,29.92,10.0,SW,12.7,-,0.00,,Partly Cloudy,230,2013-06-16 08:56:00
4:56 AM,66.9,63.9,90,29.92,10.0,WSW,8.1,-,N/A,,Clear,250,2013-06-16 09:56:00
5:56 AM,65.8,64.9,97,29.96,10.0,WSW,9.2,-,N/A,,Partly Cloudy,240,2013-06-16 10:56:00
6:56 AM,68.0,64.9,90,29.96,10.0,WSW,9.2,-,N/A,,Clear,240,2013-06-16 11:56:00
7:56 AM,70.9,65.8,84,29.97,10.0,WSW,13.8,-,N/A,,Mostly Cloudy,240,2013-06-16 12:56:00
8:56 AM,68.9,64.9,87,29.97,10.0,WSW,11.5,-,N/A,,Overcast,240,2013-06-16 13:56:00
9:56 AM,70.9,66.9,87,29.96,10.0,WSW,10.4,-,N/A,,Overcast,240,2013-06-16 14:56:00
10:26 AM,73.4,66.2,78,29.99,10.0,WSW,11.5,-,N/A,,Overcast,250,2013-06-16 15:26:00
10:56 AM,72.9,66.9,82,29.96,10.0,WSW,10.4,-,N/A,,Overcast,250,2013-06-16 15:56:00
11:56 AM,75.9,66.9,74,29.96,10.0,WSW,11.5,-,N/A,,Mostly Cloudy,250,2013-06-16 16:56:00
12:56 PM,75.9,66.9,74,29.95,10.0,WSW,11.5,-,N/A,,Mostly Cloudy,240,2013-06-16 17:56:00
1:48 PM,77.0,69.8,78,29.98,10.0,SW,12.7,-,N/A,,Mostly Cloudy,230,2013-06-16 18:48:00
1:56 PM,77.9,68.9,74,29.95,10.0,SW,16.1,-,N/A,,Mostly Cloudy,230,2013-06-16 18:56:00
2:18 PM,78.8,69.8,74,29.98,10.0,WSW,13.8,-,N/A,,Mostly Cloudy,240,2013-06-16 19:18:00
2:56 PM,79.0,68.9,71,29.94,10.0,SW,12.7,-,N/A,,Mostly Cloudy,230,2013-06-16 19:56:00
3:56 PM,81.9,68.0,63,29.92,10.0,WSW,12.7,-,N/A,,Mostly Cloudy,250,2013-06-16 20:56:00
4:56 PM,81.0,68.0,65,29.92,10.0,West,9.2,-,N/A,,Mostly Cloudy,280,2013-06-16 21:56:00
5:56 PM,79.9,68.0,67,29.91,10.0,West,11.5,-,N/A,,Mostly Cloudy,260,2013-06-16 22:56:00
6:56 PM,81.0,68.0,65,29.91,10.0,West,8.1,-,N/A,,Mostly Cloudy,270,2013-06-16 23:56:00
7:56 PM,79.0,68.0,69,29.91,10.0,West,8.1,-,N/A,,Partly Cloudy,280,2013-06-17 00:56:00
8:56 PM,75.9,68.0,76,29.91,10.0,WSW,3.5,-,N/A,,Clear,240,2013-06-17 01:56:00
9:56 PM,72.0,68.0,87,29.93,10.0,SW,4.6,-,N/A,,Clear,230,2013-06-17 02:56:00
10:56 PM,72.0,68.0,87,29.94,10.0,WSW,4.6,-,N/A,,Clear,250,2013-06-17 03:56:00
11:56 PM,70.0,66.9,90,29.95,10.0,SW,3.5,-,N/A,,Clear,220,2013-06-17 04:56:00